Sigfox identifier Datetime Temperature Humidity SNR
003C5572 2019-02-20 14:03:06 20.9 25 23.7
003C5572 2019-02-20 13:31:30 20.9 25 23.8
003C5572 2019-02-20 12:59:47 20.9 25 23
003C5572 2019-02-20 11:56:34 20.8 26 23
003C5572 2019-02-20 11:24:51 20.8 26 22.1
003C5572 2019-02-20 10:53:13 20.8 26 20.9
003C5572 2019-02-20 10:21:36 20.7 26 22.1
003C5572 2019-02-20 09:49:58 20.8 26 22.1
003C5572 2019-02-20 09:18:17 20.8 26 21
003C5572 2019-02-20 08:46:38 20.8 26 19.3
003C5572 2019-02-20 08:15:01 20.8 26 19.3
003C5572 2019-02-20 07:43:22 21 26 19.3
003C5572 2019-02-20 07:42:08 20.8 26 19.1
003C5572 2019-02-20 07:10:31 20.8 26 19
003C5572 2019-02-20 06:38:52 20.8 26 19.1
003C5572 2019-02-20 06:07:13 20.8 26 20.8
003C5572 2019-02-20 05:35:34 20.8 26 21.9
003C5572 2019-02-20 05:03:57 20.8 26 21.8
003C5572 2019-02-20 04:32:17 20.8 26 21.7
003C5572 2019-02-20 04:00:39 20.9 26 21.8
003C5572 2019-02-20 03:29:01 20.9 26 21.8
003C5572 2019-02-20 02:57:25 20.9 26 21.7
003C5572 2019-02-20 02:25:47 20.9 26 21.6
003C5572 2019-02-20 01:54:09 20.9 26 21.6
003C5572 2019-02-20 01:22:31 20.9 26 21.6
003C5572 2019-02-20 00:50:52 20.9 26 21.6
003C5572 2019-02-20 00:19:13 20.9 26 21.5
003C5572 2019-02-19 23:47:34 20.9 26 21.5
003C5572 2019-02-19 23:15:54 20.9 26 21.5
003C5572 2019-02-19 22:44:15 20.9 26 21.5
003C5572 2019-02-19 22:12:36 21 26 21.4
003C5572 2019-02-19 21:40:59 21 26 20.1
003C5572 2019-02-19 21:09:18 21 26 20.1
003C5572 2019-02-19 20:37:39 21 26 20
003C5572 2019-02-19 20:06:01 21 26 20
003C5572 2019-02-19 19:34:18 21 26 20
003C5572 2019-02-19 19:02:36 21 26 20
003C5572 2019-02-19 18:30:58 21 26 20.2
003C5572 2019-02-19 17:59:15 21.1 26 20.3
003C5572 2019-02-19 17:27:34 21.1 26 20.3
003C5572 2019-02-19 16:55:54 21.1 26 14.9
003C5572 2019-02-19 16:24:15 21.1 25 15.3
003C5572 2019-02-19 15:52:39 21 25 15.3
003C5572 2019-02-19 15:20:55 21 25 15.3
003C5572 2019-02-19 14:49:16 21 25 15.5
003C5572 2019-02-19 14:17:36 21 25 15.8
003C5572 2019-02-19 13:45:57 21 25 16
003C5572 2019-02-19 13:14:22 21 25 16.1
003C5572 2019-02-19 12:42:43 20.9 25 16.3
003C5572 2019-02-19 12:10:59 20.9 25 16.5
003C5572 2019-02-19 11:39:20 20.9 24 16.4
003C5572 2019-02-19 11:07:39 20.9 24 16.9
003C5572 2019-02-19 10:36:00 20.9 24 17.1
003C5572 2019-02-19 10:04:22 20.8 24 17.1
003C5572 2019-02-19 09:32:41 20.9 24 17.2
003C5572 2019-02-19 09:01:01 20.8 24 17.3
003C5572 2019-02-19 08:29:22 20.8 23 17.2
003C5572 2019-02-19 07:57:44 20.8 23 17.2
003C5572 2019-02-19 07:26:03 20.8 23 17.4
003C5572 2019-02-19 06:54:24 20.9 23 17.4
003C5572 2019-02-19 06:22:45 20.9 23 17.4
003C5572 2019-02-19 05:51:06 21.1 23 17.4
003C5572 2019-02-19 05:49:52 20.8 23 17.3
003C5572 2019-02-19 05:18:12 20.8 23 17.3
003C5572 2019-02-19 04:46:33 20.9 23 17.2
003C5572 2019-02-19 04:14:53 20.8 23 19.6
003C5572 2019-02-19 03:43:13 20.8 23 19.6
003C5572 2019-02-19 03:11:34 20.8 23 19.6
003C5572 2019-02-19 02:39:55 20.9 22 19.5
003C5572 2019-02-19 02:08:16 20.8 22 19.5
003C5572 2019-02-19 01:36:38 20.9 22 19.4
003C5572 2019-02-19 01:05:00 20.8 22 19.5
003C5572 2019-02-19 00:33:24 20.8 22 19.6
003C5572 2019-02-19 00:01:44 20.8 22 19.7
003C5572 2019-02-18 23:30:05 20.9 22 19.6
003C5572 2019-02-18 22:58:26 20.9 22 19.8
003C5572 2019-02-18 22:26:47 20.9 22 19.7
003C5572 2019-02-18 21:55:08 20.9 22 19.8
003C5572 2019-02-18 21:23:29 20.9 21 20
003C5572 2019-02-18 20:51:50 20.9 21 20.2
003C5572 2019-02-18 20:20:10 20.9 21 20.5
003C5572 2019-02-18 19:48:31 20.9 21 20.6
003C5572 2019-02-18 19:16:51 20.9 21 20.8
003C5572 2019-02-18 18:45:13 20.9 21 20.9
003C5572 2019-02-18 18:13:35 20.9 21 21.1
003C5572 2019-02-18 17:42:00 20.9 21 21.3
003C5572 2019-02-18 17:10:20 21 21 21.4
003C5572 2019-02-18 16:38:44 21 21 21.5
003C5572 2019-02-18 16:07:06 21 20 22.5
003C5572 2019-02-18 15:35:26 21 20 22.7
003C5572 2019-02-18 15:03:47 21 20 21.8
003C5572 2019-02-18 14:32:06 21 20 21.9
003C5572 2019-02-18 14:00:27 21.1 20 22.1
003C5572 2019-02-18 13:28:48 21.1 20 22.3
003C5572 2019-02-18 12:57:07 21.2 19 22.4
003C5572 2019-02-18 12:25:29 21.2 19 22.5
003C5572 2019-02-18 11:53:48 21.2 20 22.6
003C5572 2019-02-18 11:22:04 21.1 19 23.4
003C5572 2019-02-18 10:50:23 21.1 19 23.4
003C5572 2019-02-18 10:18:43 21 19 23.4
003C5572 2019-02-18 09:47:04 21 19 23.5
003C5572 2019-02-18 09:15:24 20.9 19 23.6
003C5572 2019-02-18 08:43:45 20.9 19 23.6
003C5572 2019-02-18 08:12:06 20.9 19 23.6
003C5572 2019-02-18 07:40:26 20.8 19 23.7
003C5572 2019-02-18 07:08:47 20.8 19 23.6
003C5572 2019-02-18 06:37:06 20.8 19 24.2
003C5572 2019-02-18 06:05:27 20.8 19 24.2
003C5572 2019-02-18 05:33:47 20.8 19 24.2
003C5572 2019-02-18 05:02:09 20.8 19 24.2
003C5572 2019-02-18 04:30:30 20.8 19 24.1
003C5572 2019-02-18 03:58:50 21 19 24.1
003C5572 2019-02-18 03:57:36 20.8 20 24.1
003C5572 2019-02-18 03:25:56 20.8 20 23.5
003C5572 2019-02-18 02:54:17 20.8 20 23.5
003C5572 2019-02-18 02:22:37 20.8 20 23.4
003C5572 2019-02-18 01:50:58 20.9 20 23.5
003C5572 2019-02-18 01:19:19 20.9 20 23.4
003C5572 2019-02-18 00:47:41 20.9 20 23.4
003C5572 2019-02-18 00:16:03 20.9 20 23.4
003C5572 2019-02-17 23:44:24 20.9 20 23.4
003C5572 2019-02-17 23:12:43 20.9 20 23.4
003C5572 2019-02-17 22:41:03 20.9 20 22.6
003C5572 2019-02-17 22:09:24 20.9 20 22.7
003C5572 2019-02-17 21:37:45 20.9 20 22.8
003C5572 2019-02-17 21:06:06 20.9 21 22.9
003C5572 2019-02-17 20:34:27 20.9 21 22.9
003C5572 2019-02-17 20:02:49 20.9 21 22.9
003C5572 2019-02-17 19:31:10 21 21 22.8
003C5572 2019-02-17 18:59:33 20.9 21 22.8
003C5572 2019-02-17 18:27:54 20.9 21 22.8
003C5572 2019-02-17 17:56:16 21 21 22
003C5572 2019-02-17 17:24:38 20.9 21 22
003C5572 2019-02-17 16:52:59 21 21 22.1
003C5572 2019-02-17 16:21:20 21 21 22.1
003C5572 2019-02-17 15:49:40 21 21 22.1
003C5572 2019-02-17 15:18:00 21 22 22.1
003C5572 2019-02-17 14:46:21 21 22 22.1
003C5572 2019-02-17 14:14:42 21 22 22.1
003C5572 2019-02-17 13:43:02 21 22 22.1
003C5572 2019-02-17 13:11:24 21 22 22.9
003C5572 2019-02-17 12:39:44 21 22 22.9
003C5572 2019-02-17 12:08:04 20.9 22 23
003C5572 2019-02-17 11:36:24 20.9 22 22.9
003C5572 2019-02-17 11:04:43 21 22 22.9
003C5572 2019-02-17 10:33:04 20.9 22 22.9
003C5572 2019-02-17 10:01:26 20.9 22 22.9
003C5572 2019-02-17 09:29:46 20.9 22 23
003C5572 2019-02-17 08:58:06 20.9 23 22.9
003C5572 2019-02-17 08:26:27 21 23 22.9
003C5572 2019-02-17 07:54:50 21 23 22.9
003C5572 2019-02-17 07:23:10 21 23 22.8
003C5572 2019-02-17 06:51:31 21 23 22.9
003C5572 2019-02-17 06:19:51 21 23 23.6
003C5572 2019-02-17 05:48:11 21 23 23.6
003C5572 2019-02-17 05:16:30 21 23 23.6
003C5572 2019-02-17 04:44:49 21 24 23.5
003C5572 2019-02-17 04:13:10 21 24 24.2
003C5572 2019-02-17 03:41:29 21 24 24.1
003C5572 2019-02-17 03:09:49 21 24 24.1
003C5572 2019-02-17 02:38:09 21 24 24.1
003C5572 2019-02-17 02:06:29 21.3 24 24.1
003C5572 2019-02-17 02:05:15 21 24 24.1
003C5572 2019-02-17 01:33:36 21 24 24.1
003C5572 2019-02-17 01:01:57 21 24 24.1
003C5572 2019-02-17 00:30:18 21 25 23.5
003C5572 2019-02-16 23:58:40 21.1 25 23.5
003C5572 2019-02-16 23:26:59 21 25 23.5
003C5572 2019-02-16 22:55:19 21.1 25 23.5
003C5572 2019-02-16 22:23:40 21.1 25 23.5
003C5572 2019-02-16 21:52:01 21.1 25 23.4
003C5572 2019-02-16 21:20:21 21.1 25 23.4
003C5572 2019-02-16 20:48:41 21.1 25 23.3
003C5572 2019-02-16 20:17:01 21.1 25 23.4
003C5572 2019-02-16 19:45:21 21.1 25 23.3
003C5572 2019-02-16 19:13:40 21.1 25 23.3
003C5572 2019-02-16 18:41:58 21.1 25 23.3
003C5572 2019-02-16 18:10:18 21.1 25 23.3
003C5572 2019-02-16 17:38:38 21.2 25 23.3
003C5572 2019-02-16 17:06:58 21.2 25 23.2
003C5572 2019-02-16 16:35:19 21.2 25 23.2
003C5572 2019-02-16 16:03:39 21.2 25 23.2
003C5572 2019-02-16 15:32:01 21.2 25 22.5
003C5572 2019-02-16 15:00:21 21.2 25 22.5
003C5572 2019-02-16 14:28:41 21.2 25 22.4
003C5572 2019-02-16 13:57:02 21.2 25 22.5
003C5572 2019-02-16 13:25:21 21.1 25 22.5
003C5572 2019-02-16 12:53:40 21.1 25 22.5
003C5572 2019-02-16 12:22:01 21.1 25 22.6
003C5572 2019-02-16 11:50:22 21.1 25 22.5
003C5572 2019-02-16 11:18:42 21.1 25 22.5
003C5572 2019-02-16 10:47:04 21 25 22.6
003C5572 2019-02-16 10:15:24 21 25 22.6
003C5572 2019-02-16 09:43:46 21.1 25 22.6
003C5572 2019-02-16 09:12:08 21.1 25 22.6
003C5572 2019-02-16 08:40:30 21.1 25 22.7
003C5572 2019-02-16 08:08:53 21.1 25 22.8
003C5572 2019-02-16 07:37:13 21.1 25 22.8
003C5572 2019-02-16 07:05:33 21.1 25 22.9
003C5572 2019-02-16 06:33:54 21.1 25 22.9
003C5572 2019-02-16 06:02:15 21.1 25 22.9
003C5572 2019-02-16 05:30:35 21.1 25 22.9
003C5572 2019-02-16 04:58:54 21.1 25 22.8
003C5572 2019-02-16 04:27:14 21.1 25 21.9
003C5572 2019-02-16 03:55:35 21.1 25 21.9
003C5572 2019-02-16 03:23:56 21.1 25 21.9
003C5572 2019-02-16 02:52:17 21.2 25 22.7
003C5572 2019-02-16 02:20:35 21.2 25 22.6
003C5572 2019-02-16 01:48:55 21.2 25 22.6
003C5572 2019-02-16 01:17:15 21.2 25 22.6
003C5572 2019-02-16 00:45:34 21.2 25 22.6
003C5572 2019-02-16 00:13:54 21.5 25 22.6
003C5572 2019-02-16 00:12:41 21.3 25 22.6
003C5572 2019-02-15 23:41:01 21.3 25 22.5
003C5572 2019-02-15 23:09:21 21.3 25 22.4
003C5572 2019-02-15 22:37:40 21.4 25 22.4
003C5572 2019-02-15 22:05:58 21.4 25 22.4
003C5572 2019-02-15 21:34:18 21.4 25 22.4
003C5572 2019-02-15 21:02:37 21.5 25 23.2
003C5572 2019-02-15 20:30:56 21.5 25 23.2
003C5572 2019-02-15 19:59:17 21.5 25 23.2
003C5572 2019-02-15 19:27:37 21.6 24 23.1
003C5572 2019-02-15 18:55:57 21.6 25 23.1
003C5572 2019-02-15 18:24:17 21.6 24 23.1
003C5572 2019-02-15 17:52:37 21.6 24 23.2
003C5572 2019-02-15 17:20:58 21.6 24 23.2
003C5572 2019-02-15 16:49:19 21.6 24 23.2
003C5572 2019-02-15 16:17:40 21.6 24 23.3
003C5572 2019-02-15 15:46:01 21.5 24 23.4
003C5572 2019-02-15 15:14:22 21.5 24 23.4
003C5572 2019-02-15 14:42:44 21.5 24 24
003C5572 2019-02-15 14:11:05 21.5 24 23.4
003C5572 2019-02-15 13:39:27 21.5 24 23.5
003C5572 2019-02-15 13:07:48 21.4 24 23.5
003C5572 2019-02-15 12:36:09 21.4 24 23.5
003C5572 2019-02-15 12:04:30 21.4 25 23.5
003C5572 2019-02-15 11:32:51 21.4 25 23.6
003C5572 2019-02-15 11:01:13 21.4 25 23.6
003C5572 2019-02-15 10:29:34 21.3 25 23.7
003C5572 2019-02-15 09:57:54 21.3 25 24.3
003C5572 2019-02-15 09:26:14 21.3 25 24.4
003C5572 2019-02-15 08:54:34 21.3 25 24.4
003C5572 2019-02-15 08:22:54 21.3 25 24.9
003C5572 2019-02-15 07:51:14 21.3 25 24.4
003C5572 2019-02-15 07:19:33 21.3 25 24.4
003C5572 2019-02-15 06:47:54 21.3 25 24.3
003C5572 2019-02-15 06:16:15 21.3 25 24.3
003C5572 2019-02-15 05:44:36 21.3 25 24.3
003C5572 2019-02-15 05:12:57 21.2 25 24.3
003C5572 2019-02-15 04:41:20 21.3 25 24.2
003C5572 2019-02-15 04:09:41 21.3 25 24.2
003C5572 2019-02-15 03:38:03 21.3 25 24.1
003C5572 2019-02-15 03:06:22 21.3 25 24.1
003C5572 2019-02-15 02:34:44 21.3 25 24
003C5572 2019-02-15 02:03:05 21.3 25 24
003C5572 2019-02-15 01:31:26 21.3 25 23.3
003C5572 2019-02-15 00:59:46 21.3 25 23.2
003C5572 2019-02-15 00:28:06 21.4 25 23.2
003C5572 2019-02-14 23:56:25 21.4 25 23.2
003C5572 2019-02-14 23:24:44 21.4 24 23.2
003C5572 2019-02-14 22:53:05 21.4 24 23.1
003C5572 2019-02-14 22:21:26 21.7 24 22.9
003C5572 2019-02-14 22:20:13 21.5 24 22.8
003C5572 2019-02-14 21:48:33 21.5 24 22.9
003C5572 2019-02-14 21:16:54 21.5 24 21.9
003C5572 2019-02-14 20:45:14 21.6 24 21.9
003C5572 2019-02-14 20:13:32 21.6 24 21.8
003C5572 2019-02-14 19:41:54 21.6 24 20.5
003C5572 2019-02-14 19:10:14 21.7 24 20.6
003C5572 2019-02-14 18:38:35 21.7 24 20.7
003C5572 2019-02-14 18:06:54 21.7 24 20.6
003C5572 2019-02-14 17:35:14 21.8 24 20.6
003C5572 2019-02-14 17:03:33 21.8 24 20.5
003C5572 2019-02-14 16:31:51 21.8 24 20.4
003C5572 2019-02-14 16:00:11 21.7 24 20.5
003C5572 2019-02-14 15:28:32 21.7 24 20.7
003C5572 2019-02-14 14:56:52 21.7 24 20.9
003C5572 2019-02-14 14:25:11 21.6 24 20.8
003C5572 2019-02-14 13:53:31 21.6 23 20.9
003C5572 2019-02-14 13:21:50 21.5 23 20.9
003C5572 2019-02-14 12:50:09 21.4 23 21.1
003C5572 2019-02-14 12:18:29 21.3 22 21.2
003C5572 2019-02-14 11:46:50 21.2 23 21.3
003C5572 2019-02-14 11:15:11 21.2 23 21.1
003C5572 2019-02-14 10:43:33 21.1 23 21.1
003C5572 2019-02-14 10:11:54 21 24 21.3
003C5572 2019-02-14 09:40:13 21 23 21.5
003C5572 2019-02-14 09:08:34 20.9 23 21.6
003C5572 2019-02-14 08:36:55 20.9 23 21.5
003C5572 2019-02-14 08:05:15 20.9 24 21.4
003C5572 2019-02-14 07:33:36 20.9 24 21.5
003C5572 2019-02-14 07:02:00 20.9 25 21.5
003C5572 2019-02-14 06:30:18 20.9 25 22.6
003C5572 2019-02-14 05:58:39 20.9 25 22.4
003C5572 2019-02-14 05:27:00 20.9 25 22.3
003C5572 2019-02-14 04:55:19 20.9 25 22.3
003C5572 2019-02-14 04:23:41 21 25 22.2
003C5572 2019-02-14 03:52:02 21 25 22.3
003C5572 2019-02-14 03:20:23 21 25 22.4
003C5572 2019-02-14 02:48:44 21 25 22.4
003C5572 2019-02-14 02:17:05 20.9 25 22.3
003C5572 2019-02-14 01:45:25 21 25 22.3
003C5572 2019-02-14 01:13:44 21 25 22.3
003C5572 2019-02-14 00:42:04 21 24 22.3
003C5572 2019-02-14 00:10:23 21 24 22.2
003C5572 2019-02-13 23:38:44 21.1 24 22.2
003C5572 2019-02-13 23:07:02 21.1 24 22
003C5572 2019-02-13 22:35:20 21.1 24 22
003C5572 2019-02-13 22:03:38 21.2 24 22
003C5572 2019-02-13 21:31:59 21.2 24 21.9
003C5572 2019-02-13 21:00:19 21.3 24 21.8
003C5572 2019-02-13 20:28:38 21.6 24 21.7
003C5572 2019-02-13 20:27:24 21.4 25 21.6
003C5572 2019-02-13 19:55:44 21.4 25 21.7
003C5572 2019-02-13 19:24:05 21.5 25 21.7
003C5572 2019-02-13 18:52:26 21.5 25 21.8
003C5572 2019-02-13 18:20:46 21.6 25 21.7
003C5572 2019-02-13 17:49:07 21.6 26 20.5
003C5572 2019-02-13 17:17:27 21.5 26 20.8
003C5572 2019-02-13 16:45:47 21.4 27 20.8
003C5572 2019-02-13 16:14:07 21.3 26 20.9
003C5572 2019-02-13 15:42:26 21.3 25 20.9
003C5572 2019-02-13 15:10:47 21.2 25 20.9
003C5572 2019-02-13 14:39:07 21.1 25 21.1
003C5572 2019-02-13 14:07:27 21.1 24 21
003C5572 2019-02-13 13:35:49 21.2 24 20.9
003C5572 2019-02-13 13:04:10 21.2 24 20.8
003C5572 2019-02-13 12:32:31 21.2 24 20.6
003C5572 2019-02-13 12:00:51 21.2 25 20.5
003C5572 2019-02-13 11:29:10 21.1 25 20.6
003C5572 2019-02-13 10:57:30 21 25 20.6
003C5572 2019-02-13 10:25:52 20.9 24 20.7
003C5572 2019-02-13 09:54:13 20.9 23 20.7
003C5572 2019-02-13 09:22:35 20.9 23 20.8
003C5572 2019-02-13 08:50:57 20.9 22 20.7
003C5572 2019-02-13 08:19:18 20.9 21 20.7
003C5572 2019-02-13 07:47:40 20.9 20 20.7
003C5572 2019-02-13 07:16:03 20.9 18 20.6
003C5572 2019-02-13 06:44:26 20.9 18 20.5
003C5572 2019-02-13 06:12:47 20.9 18 20.5
003C5572 2019-02-13 05:41:07 20.9 18 20.2
003C5572 2019-02-13 05:09:27 20.9 18 20.1
003C5572 2019-02-13 04:37:48 20.9 18 19.9
003C5572 2019-02-13 04:06:08 21 18 19.8
003C5572 2019-02-13 03:34:28 21 18 19.5
003C5572 2019-02-13 03:02:49 21 18 19.6
003C5572 2019-02-13 02:31:10 21 18 19.7
003C5572 2019-02-13 01:59:30 21 18 19.5
003C5572 2019-02-13 01:27:49 21 17 19.3
003C5572 2019-02-13 00:56:10 21 17 19.2
003C5572 2019-02-13 00:24:29 21 18 19.2
003C5572 2019-02-12 23:52:47 21.1 19 19.4
003C5572 2019-02-12 23:21:04 21.1 19 19.4
003C5572 2019-02-12 22:49:22 21.1 18 19.4
003C5572 2019-02-12 22:17:40 21.1 18 19.4
003C5572 2019-02-12 21:45:58 21.2 18 19.2
003C5572 2019-02-12 21:14:17 21.3 20 19
003C5572 2019-02-12 20:42:36 21.3 20 18.9
003C5572 2019-02-12 20:10:55 21.4 20 19.2
003C5572 2019-02-12 19:39:16 21.4 20 19.5
003C5572 2019-02-12 19:07:35 21.3 19 19.6
003C5572 2019-02-12 18:35:54 21.5 19 19.6
003C5572 2019-02-12 18:34:40 21.3 19 19.9
003C5572 2019-02-12 18:02:59 21.3 18 19.9
003C5572 2019-02-12 17:31:17 21.4 18 19.9
003C5572 2019-02-12 16:59:37 21.4 18 20
003C5572 2019-02-12 16:27:56 21.5 18 20.2
003C5572 2019-02-12 15:56:16 21.5 18 20.2
003C5572 2019-02-12 15:24:34 21.5 18 20.1
003C5572 2019-02-12 14:52:53 21.5 18 20.4
003C5572 2019-02-12 14:21:12 21.3 18 20.3
003C5572 2019-02-12 13:49:31 21.3 18 20.2
003C5572 2019-02-12 13:17:49 21.3 18 20.3
003C5572 2019-02-12 12:46:07 21.4 18 20.4
003C5572 2019-02-12 12:14:25 21.5 18 20.3
003C5572 2019-02-12 11:42:42 21.4 18 20.4
003C5572 2019-02-12 11:11:00 21.3 18 20.5
003C5572 2019-02-12 10:39:19 21.3 19 20.6
003C5572 2019-02-12 10:07:38 21.2 19 20.6
003C5572 2019-02-12 09:35:57 21.1 20 20.6
003C5572 2019-02-12 09:04:17 21 22 20.6
003C5572 2019-02-12 08:32:37 21 23 20.8
003C5572 2019-02-12 08:00:56 20.9 22 21
003C5572 2019-02-12 07:29:17 20.9 23 20.8
003C5572 2019-02-12 06:57:36 20.9 25 20.8
003C5572 2019-02-12 06:25:56 20.9 26 20.9
003C5572 2019-02-12 05:54:17 20.9 26 20.8
003C5572 2019-02-12 05:22:38 21 26 20.6
003C5572 2019-02-12 04:50:59 21 26 20.6
003C5572 2019-02-12 04:19:19 21 26 20.6
003C5572 2019-02-12 03:47:42 21 26 20.6
003C5572 2019-02-12 03:15:58 21 26 20.6
003C5572 2019-02-12 02:44:16 21 26 20.7
003C5572 2019-02-12 02:12:36 21 27 20.9
003C5572 2019-02-12 01:40:55 21 27 20.8
003C5572 2019-02-12 01:09:14 21.1 27 20.8
003C5572 2019-02-12 00:37:32 21.1 27 20.9
003C5572 2019-02-12 00:05:52 21.1 27 21
003C5572 2019-02-11 23:34:12 21.2 27 21
003C5572 2019-02-11 23:02:30 21.2 27 21.1
003C5572 2019-02-11 22:30:48 21.3 27 20.9
003C5572 2019-02-11 21:59:07 21.3 27 20.9
003C5572 2019-02-11 21:27:26 21.4 27 20.9
003C5572 2019-02-11 20:55:46 21.5 27 20.9
003C5572 2019-02-11 20:24:04 21.6 27 21
003C5572 2019-02-11 19:52:23 21.7 27 21.4
003C5572 2019-02-11 19:20:42 21.8 27 21
003C5572 2019-02-11 18:49:01 21.9 26 20.6
003C5572 2019-02-11 18:17:19 22.1 26 21.5
003C5572 2019-02-11 17:45:38 22.3 27 20.2
003C5572 2019-02-11 17:13:57 22.4 27 16.7
003C5572 2019-02-11 16:42:14 22.3 31 0